Find the Weather for any City, State or Zip Code, or Country:


Mobile Weather


Questions? Comments?
Contact Greg


Winchester Trails
Subdivision Website


New! Stream Houston NOAA Weather Radio Here!


Current Maps

Tropical (Hurricane)

Temperature

Heat Index

Windchill

Humidity

Radar

Dew Point

Wind

Visibility

Visible Satellite

Satellite

Fronts

Jet Stream

Flight Rules


Forecast Maps

Temperature Forecast

Maximum Temperature Forecast

Minimum Temperature Forecast

Dewpoint Forecast

Prevalent Weather

12Hr Probability of Precip.

Sky Cover


Health Maps

Houston Pollen/Mold Report

UV Forecast

Air Quality

Peak Air Quality Index


Miscellaneous

NOAA Aviation Weather

NWS Houston/Galveston

National Weather Service (main page)

National Hurricane Center

NOAA Historical Hurricane Tracks

Wunderground
Hurricane Archive


Harris Co. Flood Warning System

Harris Co. Storm Risk Calculator

U.S. Drought Monitor

TX Lake/Reservoir Data & Levels

Eric 'SciGuy' Berger Weather Blog

Dr. Jeff Masters Weather Blog

Houston Traffic

TxDOT Highway Conditions

Houston Electricity Outage Tracker

Houston Bayport Cruise Terminal Webcam

Galveston CruiseCam


This Station's Data

NOAA-Style Reports

Weather Detail

Daily Tabular Data


This Station's Position:
Lat. 29° 54' 14.18" N
Lon. 95° 34' 24.45" W
Elevation 112 ft (34.1 m)


Visit this station's partner in Cypress, 8sm west of here!


Weather Instruments:


Vantage Pro 2


Current Weather Conditions

This page refreshes automatically every 5 minutes and is best viewed at 1024x768 or higher resolution.
Powered by Ambient Weather Virtual Weather Station V15.00

Page last refreshed October 23, 2014 at 1:35 am CDT (UTC -6)

Metric & Other Conversions for Current Observations
Current Temp18.2 °CHigh Temp19.6 °CLow Temp18.2 °C
Current Dew Point14.5 °CHeat Index20.5 °CWind Chill18.2 °C
Barometer1019.35 mbarBarometer764.5 mmHgBarometer14.78 psi
Density Altitude:  334 ft (101.8 m)Pressure Altitude:  -53 ft (-16.2 m)
Barometer readings for a Standard Day (59.0 °F/15.0 °C @ sea level):  29.92" Hg, 1013.25 mbar, 757.83 mmHg, 14.70 psi


No Warnings, Watches, or Advisories for Harris and surrounding counties.


Local Radar Other Radar Graphics Local Satellite
Click for larger image WunderMap®

High Definition Radar (KHOU)

Regional Radar
Click for larger image
Radar & Satellite Graphics by Weather Underground




National Weather Service Forecast for: Jersey Village TX
Issued by: National Weather Service Houston, TX
Updated: 1:20 am CDT Oct 23, 2014
 
Overnight

Partly Cloudy
Partly
Cloudy
Thursday

Mostly Sunny
Mostly
Sunny
Thursday
Night

Mostly Clear
Mostly
Clear
Friday

Sunny
Sunny
Friday
Night

Mostly Clear
Mostly
Clear
Saturday

Sunny
Sunny
Saturday
Night

Mostly Clear
Mostly
Clear
Sunday

Sunny
Sunny
Sunday
Night

Mostly Clear
Mostly
Clear
Lo 57 °F Hi 83 °F Lo 57 °F Hi 84 °F Lo 58 °F Hi 86 °F Lo 61 °F Hi 86 °F Lo 63 °F

 

Overnight
 
Partly cloudy, with a low around 57. Northeast wind around 5 mph.
Thursday
 
Mostly sunny, with a high near 83. Northeast wind around 5 mph.
Thursday Night
 
Mostly clear, with a low around 57. East wind around 5 mph.
Friday
 
Sunny, with a high near 84. North wind around 5 mph.
Friday Night
 
Mostly clear, with a low around 58. East wind around 5 mph becoming calm.
Saturday
 
Sunny, with a high near 86.
Saturday Night
 
Mostly clear, with a low around 61.
Sunday
 
Sunny, with a high near 86.
Sunday Night
 
Mostly clear, with a low around 63.
Monday
 
Mostly sunny, with a high near 85.
Monday Night
 
Partly cloudy, with a low around 65.
Tuesday
 
A 20 percent chance of showers and thunderstorms. Mostly sunny, with a high near 85.
Tuesday Night
 
Partly cloudy, with a low around 63.
Wednesday
 
Partly sunny, with a high near 81.

 

Forecast from NOAA-NWS for Jersey Village TX.

Follow this link for a current verbose area forecast discussion from the NWS.
Forecast Script by Saratoga Weather | Animated icons by Meteo Treviglio


Radar and Satellite Imagery


US Current Fronts w/Radar

Southcentral Infrared Satellite

US Jet Stream

Visible Satellite
The WunderMap is interactive - pan and zoom with your mouse.
WunderMap here requires Flash.
If accessing from an iOS device, you can download the Wundermap App from the App Store.
  
Click to go to WUnderground
Sea Surface Temp & Tropical System Map
Map Graphics by Weather Underground


Rainfall Information
Yesterday's Rain: 0 in
Last Rainfall:
Surrounding Area Rainfall Data
NOAA Avg. Rainfall For: Month to Date
(1971-2000)
Month to Date
(1981-2010)
Year to Date
(1971-2000)
Year to Date
(1981-2010)
Jersey Village: 3.17 in
(-0.55 in)
3.75 in
(-1.13 in)
40.76 in
(-5.19 in)
42.38 in
(-6.81 in)
Intercontinental (KIAH) 3.37 in 4.24 in 38.83 in 40.23 in
Hobby (KHOU) 3.98 in 4.43 in 44.36 in 44.74 in
NOTE:  The numbers in parenthesis under the Jersey Village data above indicate how far ahead (green) or behind (red) this station's rain total is compared to the NOAA 1971-2000 and 1981-2010 climate normals data for today's date (Oct 23).


Other Current Regional Observations (METARs)

(Ordered by straight-line statute mile distance from this weather station)

A Few More Observations/METARs of Interest to Greg


Weather Almanac

NOAA/NWS Daily Historical Weather Browser
Major SE Texas Weather Events

Records and Normals for Oct 23
Temperature Forecast Normal Record
High 81° 78° 91°
(1932)
Low 55°
54°
33°
(1937)
Highs & Lows Observed at This Station
  Today Yesterday For 10/2014 For 2014
High Temp 67.2°F at 12:00am 81.1°F at 2:52pm 93.7°F on 10/2/14 97.6°F on 9/11/14
Low Temp 64.8°F at 1:33am 63.3°F at 7:26am 50.5°F on 10/15/14 50.5°F on 10/15/14
High Dew Point 59.6°F at 12:04am 63.2°F at 10:49am 78.2°F on 10/2/14 79.4°F on 9/16/14
Low Dew Point 58.1°F at 1:33am 58.8°F at 10:13pm 44.4°F on 10/4/14 44.4°F on 10/4/14
High Humidity 79% at 12:28am 89% at 7:23am 95% on 10/1/14 95% on 9/7/14
Low Humidity 76% at 12:00am 50% at 3:27pm 32% on 10/15/14 32% on 10/15/14
High Heat Index 70.9°F at 12:00am 82.3°F at 2:52pm 109.5°F on 10/2/14 110.8°F on 9/10/14
High Barometer 29.98in at 1:29am 30.01in at 11:14am 30.10in on 10/4/14 30.10in on 10/4/14
Low Barometer 29.96in at 12:29am 29.91in at 3:59am 29.60in on 10/13/14 29.60in on 10/13/14
High Wind Speed 3mph at 12:00am 10mph at 11:14am 27mph on 10/6/14 27mph on 10/6/14
High Wind Gust 3mph at 12:00am 10mph at 11:14am 27mph on 10/6/14 27mph on 10/6/14
Low Wind Chill 64.8°F at 1:33am 63.3°F at 7:26am 50.5°F on 10/15/14 50.5°F on 10/15/14

Sun & Moon
Sunrise:  7:31am Sunset:  6:45pm Moon Phase:
3%
Moonrise:  7:12am Moonset:  6:46pm
Star Chart...

 

Local Trend Graphs


MesoNet Local Weather Exchange® Network

Station ID

City 
(Click for Map Location)

Neighborhood 
(Click for History)
Last Update
(Date & Time)

Temp
 (°)

Dew
Point (°)
Humidity 
(%)
Wind 
(mph)
From
the
Gust
(mph) 
Pressure (in) Hourly
Rain (in)
KTXHOUST61 Houston Willow Point 10/23 01:29:11 64.9 20.0 18 0 SE 0 29.97 0.00
KTXHOUST186 Houston Winchester Trails 10/23 01:30:02 65.0 58.0 79 0 ESE 0 30.10 0.00
KTXHOUST213 Houston 18220 Tomball Parkway 10/23 01:21:06 67.5 58.0 71 0 SSW 1 29.90 0.00
KTXHOUST178 Houston Schroeder Oaks Village 10/23 01:28:04 65.9 59.0 79 0 East 0 30.05 0.00
KTXHOUST291 Houston Steeplechase 10/23 01:29:59 64.4 62.0 92 0 East 0 29.96 0.00
KTXHOUST216 Houston Cutten Green 10/23 01:29:50 65.4 59.0 81 0 NE 0 30.06 0.00
KTXHOUST232 Houston Rolling Fork 10/23 01:25:30 65.2 60.0 84 0 NE 12 30.06 0.00
KTXHOUST349 Houston Champions Crossing 10/23 01:18:52 63.9 58.0 80 0 NNE 0 29.90 0.00
KTXHOUST218 Houston Woodland Trails West 10/23 01:30:03 65.1 61.0 87 0 NNE 2 30.06 0.00
KTXHOUST121 Houston Norchester, K5WH 10/23 01:25:40 65.8 58.0 75 1

South 1 30.03 0.00
KTXHOUST170 Houston Champions Park 10/23 01:17:45 66.0 59.0 77 0 SE 0 30.06 0.00
KTXTEXAS12 Texas FM 1960 10/23 01:21:56 65.1 60.0 82 0 NW 0 30.04 0.00
KTXHOUST342 Houston Lakewood Forest at Cypresswood 10/23 01:29:54 65.7 58.0 76 0 West 0 29.88 0.00
KTXHOUST233 Houston Woods of Wimbledon 10/23 01:30:02 67.1 58.0 72 0 East 0 30.07 0.00
KTXHOUST352 Houston Vila Toscana 10/23 01:29:54 67.7 60.0 75 0 North 0 30.04 0.00
KTXHOUST260 Houston Villages at Lakepointe 10/23 01:29:55 66.6 60.0 80 2 NNE 4 30.16 0.00
KTXHOUST169 Houston Lakewood Forest 10/23 01:25:05 65.9 59.0 79 0 ENE 0 30.09 0.00
KTXHOUST261 Cypress Heatherwood Village 10/23 01:23:25 65.3 59.0 81 0 West 1 29.53 0.00
KTXSPRIN88 Spring Champions Woods 10/23 01:20:19 63.7 59.0 85 0 NNE 0 29.78 0.00
KTXCYPRE11 Cypress Weiser Airpark 10/23 01:30:03 63.5 55.0 75 0 ENE 0 30.10 0.00
KTXCYPRE4 Cypress Moore Weather 10/23 01:25:43 64.7 58.0 79 0 North 0 30.07 0.00
KTXCYPRE42 Cypress Great Oaks 10/23 01:25:26 62.2 60.0 91 0 ESE 0 30.07 0.00
KTXCYPRE79 Cypress Cypress Chase 10/23 01:29:53 64.9 59.0 82 0 NW 0 30.09 0.00
KTXHOUST271 Houston Middlegate Village 10/23 01:29:54 65.3 59.0 79 0 NNW 0 29.88 0.00
KTXCYPRE5 Cypress NW Houston (Wincrest Falls) 10/23 01:30:04 66.3 58.0 76 0 ENE 0 30.00 0.00
KTXSPRIN9 Spring Wimbledon 10/23 01:30:03 64.8 57.0 76 0 East 0 29.98 0.00
KTXTOMBA9 Tomball Spring Cypress/Eldridge 10/23 01:30:01 65.2 59.0 80 0 NW 3 30.09 0.00
KTXCYPRE39 Cypress Longwood 10/23 01:25:29 65.4 59.0 80 0 East 3 30.08 0.00
KTXHOUST29 Houston Concord Colony - K5EBQ 10/23 01:15:13 67.2 61.0 81 0 ENE 0 30.09 0.00
KTXSPRIN83 Spring Memorial NorthWest 10/23 01:30:02 64.8 59.0 81 0 West 0 29.70 0.00
KTXHOUST265 Houston Spring Shadows 10/23 01:29:49 66.3 60.0 81 4 NE 4 30.08 0.00
KTXHOUST159 Houston Copper Village 10/23 01:30:03 65.6 60.0 82 0 ENE 0 30.00 0.00
KTXSPRIN5 Spring Memorial Northwest 10/23 01:29:59 64.7 57.0 76 0 East 0 30.00 0.00
KDWH Houston Hooks Official Station 10/23 00:53:00 66.0 56.0 70 5 ENE --- 30.08 ---
KIAH Houston Intercontinental Official Station 10/23 00:53:00 63.0 58.0 84 8 East --- 30.08 ---
KMCJ Houston / Dunn Helistop Official Station 10/23 01:15:00 68.0 57.0 68 0 North --- 30.04 ---
KSGR Houston Hull Official Station 10/23 00:53:00 61.0 59.0 93 0 North --- 30.08 ---
KTXCYPRE54 Cypress Canyon Lakes West 10/23 01:30:04 66.2 58.0 76 3 East 5 30.17 0.00
KTXCYPRE65 Cypress Heritage Towne Lake 10/23 01:29:53 66.8 60.0 78 0 ENE 1 30.06 0.00
KTXCYPRE21 Cypress Bridgeland Community 66.2 66.2 60.0 79 0 NNE 1 30.06 0.00